Location: Lafig�re
(44.4503°N, 4.0357°E)
Time: 12:26:11
(UTC+00:00)

deb Explorer IX - Pass Details

Date: 27 June 2021
Orbit: 543 x 1094 km, 38.8° (Epoch: 30 July)

Event Time Altitude Azimuth Distance (km) Brightness Sun altitude
Exits shadow 02:32:49 15° 193° (SSW) 1,830 ? -12.4°
Maximum altitude 02:35:10 20° 158° (SSE) 1,491 ? -12.1°
Drops below altitude 10° 02:38:30 10° 110° (ESE) 1,963 ? -11.7°
Sets 02:41:09 0° 93° (E) 2,800 ? -11.4°
